Погода в Верх-Камышенке

Россия / Алтайский край     53°35′52″N   84°47′50″E
темп.,
°C
ветер,
м/с
пор.,
м/с
влажн.,
%
обл.,
%
осадки,
мм/ч
давл.,
гПа
погр.,
м
29 июля, чт
чт2901:00+16ссз2255100 0.0 101022
04:00+14ссз116232 0.0 101010
07:00+14с126232 0.0 101041
10:00+21св123412 0.0 10091008
13:00+24зсз222410 0.0 10082765
16:00+26ссз222398 0.0 10072936
19:00+24ссв4429100 0.0 1007846
22:00+18всв3648100 0.0 1008102
30 июля, пт
пт3001:00+15в336330 0.0 100835
04:00+13в2266100 0.0 100823
07:00+15всв225896 0.0 100956
10:00+22св1136100 0.0 1009588
13:00+25ссз3329100 0.0 10102375
16:00+24ссз4437100 0.0 10111252
19:00+21ююз115998 0.8 1012280
22:00+15с368031 0.3 101592
31 июля, сб
сб3101:00+13с33725 0.3 101538
04:00+12ссв2272100 0.0 101611
07:00+14св11715 0.0 101726
10:00+22юв11495 0.0 1016704
13:00+26ююз243410 0.0 10142537
16:00+28юз432638 0.0 10122867
19:00+26з442569 0.0 10121808
22:00+18ссз1143100 0.0 101411
1 августа, вс
вс101:00+17юв224929 0.0 101311
04:00+17ю224723 0.0 101333
07:00+16ююз115012 0.0 101331
10:00+22ююз334247 0.0 1012449
13:00+28ююз342798 0.0 10102339
16:00+29юз342599 0.0 10092754
19:00+28юз332853 0.0 10091348
22:00+20ю495734 0.0 1009147
2 августа, пн
пн201:00+18ю49654 0.0 1008130
04:00+16ююз22725 0.0 100816
07:00+18ю24615 0.0 100895
10:00+26ююз34385 0.0 1007699
13:00+30ююз552855 0.0 10052472
16:00+32ююз56245 0.0 10043113
19:00+31ююз55266 0.0 10032829
22:00+22ю47530 0.0 100487